Regional Weather Roundup
Issued by NWS

Home | Current Version | Previous Version | Text Only | Print | Product List | Glossary On
Versions: 1 2 3 4 5 6 7 8 9 10 11 12 13 14 15 16 17 18 19 20 21 22 23 24 25 26 27 28 29 30 31 32 33 34 35 36 37 38 39 40 41 42 43 44 45 46 47 48 49 50
000
ASUS43 KTOP 212308
RWRKS

WEATHER ROUNDUP FOR KANSAS
NATIONAL WEATHER SERVICE GOODLAND KS
600 PM CDT SUN MAY 21 2017

NOTE:  "FAIR" INDICATES FEW OR NO CLOUDS BELOW 12,000 FEET WITH NO
SIGNIFICANT WEATHER AND/OR OBSTRUCTIONS TO VISIBILITY.

KSZ001>006-013>018-027>032-041>047-220000-
NORTHWEST KANSAS

CITY           SKY/WX    TMP DP  RH WIND       PRES   REMARKS
GOODLAND       SUNNY     66  44  45 SE6       30.11F
HAYS           MOSUNNY   73  48  41 SW7       30.08F
HILL CITY      PTSUNNY   75  45  34 W8        30.07F
RUSSELL        PTSUNNY   71  47  42 SW13      30.06F
$$

KSZ061>065-074>080-084>089-220000-
SOUTHWEST KANSAS

CITY           SKY/WX    TMP DP  RH WIND       PRES   REMARKS
DODGE CITY     PTSUNNY   66  51  58 SE8       30.12S
ELKHART          N/A     56  43  62 MISG        N/A
GARDEN CITY    MOSUNNY   69  42  37 SE12      30.11R
LIBERAL        PTSUNNY   69  47  45 E17       30.08S
PRATT          CLOUDY    67  49  52 SW3       30.13R
$$

KSZ066>073-081>083-090>101-220000-
SOUTHEAST KANSAS

CITY           SKY/WX    TMP DP  RH WIND       PRES   REMARKS
CHANUTE        SUNNY     74  47  38 NW9       30.12R
COFFEYVILLE    PTSUNNY   74  54  49 S5        30.12R
HUTCHINSON     PTSUNNY   74  46  36 W10       30.10S
MEDICINE LODGE   N/A     71  48  43 CALM      30.12S
NEWTON         MOSUNNY   71  51  49 W7        30.11S
PARSONS        SUNNY     75  50  41 SW3       30.13R
WICHITA INTL   CLOUDY    71  49  45 W5        30.11S
WICHITA JABRA  PTSUNNY   72  50  45 SW7       30.11S
WICHITA MCCONL CLOUDY    72  47  40 W7        30.11S
WINFIELD       CLOUDY    69  50  50 CALM      30.14R
$$

KSZ007>012-019>026-033>040-048>060-102>105-220000-
NORTHEAST KANSAS

CITY           SKY/WX    TMP DP  RH WIND       PRES   REMARKS
CONCORDIA      MOSUNNY   70  46  42 NW12      30.07F
EMPORIA        SUNNY     72  47  40 W7        30.10S
LAWRENCE       SUNNY     71  45  39 W8        30.09F
MANHATTAN      SUNNY     73  45  36 VRB3      30.08F
MARYSVILLE     SUNNY     70  41  35 NW7       30.08S
OLATHE IND     SUNNY     69  43  38 W10       30.09F
OLATHE EXE     SUNNY     68  43  40 NW9G16    30.09F
SALINA         MOSUNNY   77  45  32 NW6       30.08F
TOPEKA BILLARD SUNNY     72  44  36 NW9       30.08F
TOPEKA FORBES  SUNNY     73  44  35 NW9       30.08F
$$




USA.gov is the U.S. government's official web portal to all federal, state and local government web resources and services.